Time,TemperatureF,DewpointF,PressureIn,WindDirection,WindDirectionDegrees,WindSpeedMPH,WindSpeedGustMPH,Humidity,HourlyPrecipIn,Conditions,Clouds,dailyrainin,SoftwareType,DateUTC
2013-03-21 00:14:00,25.5,22.0,29.94,North,355,4.0,26.0,87,0.00,,,0.00,weatherlink.com 1.10,2013-03-21 04:14:00,
2013-03-21 00:29:00,25.3,22.0,29.93,NNE,28,5.0,18.0,86,0.00,,,0.00,weatherlink.com 1.10,2013-03-21 04:29:00,
2013-03-21 00:44:00,25.1,21.0,29.92,NE,55,17.0,25.0,83,0.00,,,0.00,weatherlink.com 1.10,2013-03-21 04:44:00,
2013-03-21 00:59:00,24.9,20.0,29.91,NNW,327,7.0,24.0,81,0.00,,,0.00,weatherlink.com 1.10,2013-03-21 04:59:00,
2013-03-21 01:15:00,24.7,19.0,29.90,NW,306,8.0,25.0,80,0.00,,,0.00,weatherlink.com 1.10,2013-03-21 05:15:00,
2013-03-21 01:30:00,24.5,18.0,29.90,North,355,10.0,20.0,75,0.00,,,0.00,weatherlink.com 1.10,2013-03-21 05:30:00,
2013-03-21 01:45:00,24.1,17.0,29.89,NNW,346,9.0,21.0,73,0.00,,,0.00,weatherlink.com 1.10,2013-03-21 05:45:00,
2013-03-21 02:00:00,23.7,16.0,29.87,NNW,341,8.0,25.0,72,0.00,,,0.00,weatherlink.com 1.10,2013-03-21 06:00:00,
2013-03-21 02:15:00,23.3,15.0,29.87,West,277,16.0,20.0,70,0.00,,,0.00,weatherlink.com 1.10,2013-03-21 06:15:00,
2013-03-21 02:30:00,22.8,13.0,29.88,WNW,295,7.0,24.0,66,0.00,,,0.00,weatherlink.com 1.10,2013-03-21 06:30:00,
2013-03-21 02:45:00,22.4,12.0,29.90,North,355,4.0,20.0,65,0.00,,,0.00,weatherlink.com 1.10,2013-03-21 06:45:00,
2013-03-21 03:00:00,21.6,12.0,29.89,SSE,167,2.0,13.0,67,0.00,,,0.00,weatherlink.com 1.10,2013-03-21 07:00:00,
2013-03-21 03:15:00,21.3,12.0,29.89,North,360,9.0,15.0,66,0.00,,,0.00,weatherlink.com 1.10,2013-03-21 07:15:00,
2013-03-21 03:30:00,21.1,11.0,29.88,WNW,296,10.0,13.0,66,0.00,,,0.00,weatherlink.com 1.10,2013-03-21 07:30:00,
2013-03-21 03:45:00,20.7,11.0,29.88,West,269,5.0,13.0,66,0.00,,,0.00,weatherlink.com 1.10,2013-03-21 07:45:00,
2013-03-21 04:00:00,20.4,11.0,29.86,WNW,300,4.0,17.0,67,0.00,,,0.00,weatherlink.com 1.10,2013-03-21 08:00:00,
2013-03-21 04:15:00,20.2,11.0,29.85,NNW,344,2.0,20.0,67,0.00,,,0.00,weatherlink.com 1.10,2013-03-21 08:15:00,
2013-03-21 04:30:00,19.6,11.0,29.85,NW,324,9.0,15.0,68,0.00,,,0.00,weatherlink.com 1.10,2013-03-21 08:30:00,
2013-03-21 04:45:00,19.5,11.0,29.84,NNE,13,11.0,19.0,68,0.00,,,0.00,weatherlink.com 1.10,2013-03-21 08:45:00,
2013-03-21 05:00:00,19.2,11.0,29.84,NNE,22,14.0,25.0,69,0.00,,,0.00,weatherlink.com 1.10,2013-03-21 09:00:00,
2013-03-21 05:15:00,18.8,10.0,29.85,North,5,12.0,18.0,69,0.00,,,0.00,weatherlink.com 1.10,2013-03-21 09:15:00,
2013-03-21 05:30:00,18.5,10.0,29.85,North,10,8.0,16.0,70,0.00,,,0.00,weatherlink.com 1.10,2013-03-21 09:30:00,
2013-03-21 05:45:00,18.1,10.0,29.85,NW,306,8.0,17.0,70,0.00,,,0.00,weatherlink.com 1.10,2013-03-21 09:45:00,
2013-03-21 06:00:00,17.7,10.0,29.86,NNE,19,5.0,17.0,71,0.00,,,0.00,weatherlink.com 1.10,2013-03-21 10:00:00,
2013-03-21 06:15:00,17.5,10.0,29.87,West,277,11.0,15.0,72,0.00,,,0.00,weatherlink.com 1.10,2013-03-21 10:15:00,
2013-03-21 06:30:00,17.2,10.0,29.87,NW,323,5.0,14.0,73,0.00,,,0.00,weatherlink.com 1.10,2013-03-21 10:30:00,
2013-03-21 06:46:00,17.1,10.0,29.87,NW,304,9.0,20.0,74,0.00,,,0.00,weatherlink.com 1.10,2013-03-21 10:46:00,
2013-03-21 07:01:00,17.1,10.0,29.85,North,355,10.0,19.0,74,0.00,,,0.00,weatherlink.com 1.10,2013-03-21 11:01:00,
2013-03-21 07:16:00,16.9,10.0,29.86,NNW,342,7.0,20.0,75,0.00,,,0.00,weatherlink.com 1.10,2013-03-21 11:16:00,
2013-03-21 07:31:00,16.8,10.0,29.88,NNE,23,5.0,18.0,74,0.00,,,0.00,weatherlink.com 1.10,2013-03-21 11:31:00,
2013-03-21 07:46:00,16.7,10.0,29.88,NW,313,5.0,22.0,75,0.00,,,0.00,weatherlink.com 1.10,2013-03-21 11:46:00,
2013-03-21 08:01:00,16.8,10.0,29.89,NNW,342,9.0,17.0,75,0.00,,,0.00,weatherlink.com 1.10,2013-03-21 12:01:00,
2013-03-21 08:16:00,17.3,11.0,29.89,NNW,348,6.0,14.0,75,0.00,,,0.00,weatherlink.com 1.10,2013-03-21 12:16:00,
2013-03-21 08:31:00,17.9,11.0,29.89,NNE,16,9.0,17.0,73,0.00,,,0.00,weatherlink.com 1.10,2013-03-21 12:31:00,
2013-03-21 09:01:00,18.9,11.0,29.91,NNW,341,6.0,14.0,71,0.00,,,0.00,weatherlink.com 1.10,2013-03-21 13:01:00,
2013-03-21 09:16:00,19.5,11.0,29.92,NW,307,5.0,12.0,70,0.00,,,0.00,weatherlink.com 1.10,2013-03-21 13:16:00,
2013-03-21 10:31:00,21.5,11.0,29.94,North,360,1.0,15.0,63,0.00,,,0.00,weatherlink.com 1.10,2013-03-21 14:31:00,
2013-03-21 10:46:00,22.4,11.0,29.94,NNE,13,5.0,14.0,61,0.00,,,0.00,weatherlink.com 1.10,2013-03-21 14:46:00,
2013-03-21 11:01:00,22.3,11.0,29.95,NNW,344,10.0,17.0,61,0.00,,,0.00,weatherlink.com 1.10,2013-03-21 15:01:00,
2013-03-21 11:16:00,23.5,12.0,29.95,NNE,28,2.0,8.0,62,0.00,,,0.00,weatherlink.com 1.10,2013-03-21 15:16:00,
2013-03-21 11:31:00,23.7,11.0,29.95,East,100,5.0,13.0,58,0.00,,,0.00,weatherlink.com 1.10,2013-03-21 15:31:00,
2013-03-21 11:45:00,24.4,13.0,29.96,NNW,336,4.0,13.0,61,0.00,,,0.00,weatherlink.com 1.10,2013-03-21 15:45:00,
2013-03-21 12:00:00,24.7,12.0,29.96,NE,52,7.0,13.0,60,0.00,,,0.00,weatherlink.com 1.10,2013-03-21 16:00:00,
2013-03-21 12:16:00,25.6,13.0,29.96,NNW,346,4.0,14.0,58,0.00,,,0.00,weatherlink.com 1.10,2013-03-21 16:16:00,
2013-03-21 12:31:00,25.2,12.0,29.96,NW,326,4.0,16.0,57,0.00,,,0.00,weatherlink.com 1.10,2013-03-21 16:31:00,
2013-03-21 13:16:00,25.9,12.0,29.97,NNW,346,5.0,24.0,56,0.00,,,0.00,weatherlink.com 1.10,2013-03-21 17:16:00,
2013-03-21 13:31:00,27.0,14.0,29.98,ENE,78,1.0,15.0,58,0.00,,,0.00,weatherlink.com 1.10,2013-03-21 17:31:00,
2013-03-21 13:46:00,28.1,15.0,29.97,NNW,331,3.0,11.0,59,0.00,,,0.00,weatherlink.com 1.10,2013-03-21 17:46:00,
2013-03-21 14:16:00,27.9,14.0,29.98,NNW,340,4.0,20.0,55,0.00,,,0.00,weatherlink.com 1.10,2013-03-21 18:16:00,
2013-03-21 14:31:00,27.4,13.0,29.98,NW,323,1.0,14.0,54,0.00,,,0.00,weatherlink.com 1.10,2013-03-21 18:31:00,
2013-03-21 14:46:00,26.9,13.0,29.98,NNW,338,7.0,16.0,56,0.00,,,0.00,weatherlink.com 1.10,2013-03-21 18:46:00,
2013-03-21 15:01:00,27.4,14.0,29.98,WSW,258,9.0,16.0,57,0.00,,,0.00,weatherlink.com 1.10,2013-03-21 19:01:00,
2013-03-21 15:16:00,26.4,13.0,29.98,NNE,21,7.0,16.0,58,0.00,,,0.00,weatherlink.com 1.10,2013-03-21 19:16:00,
2013-03-21 15:32:00,27.5,13.0,29.98,NW,321,11.0,17.0,54,0.00,,,0.00,weatherlink.com 1.10,2013-03-21 19:32:00,
2013-03-21 15:47:00,26.4,13.0,29.99,NE,42,2.0,16.0,58,0.00,,,0.00,weatherlink.com 1.10,2013-03-21 19:47:00,
2013-03-21 16:02:00,27.4,14.0,29.99,NNW,348,7.0,16.0,58,0.00,,,0.00,weatherlink.com 1.10,2013-03-21 20:02:00,
2013-03-21 16:17:00,26.7,13.0,30.00,NE,51,5.0,14.0,56,0.00,,,0.00,weatherlink.com 1.10,2013-03-21 20:17:00,
2013-03-21 16:32:00,27.5,13.0,30.00,NW,315,8.0,19.0,54,0.00,,,0.00,weatherlink.com 1.10,2013-03-21 20:32:00,
2013-03-21 16:47:00,28.1,12.0,30.00,NW,314,5.0,13.0,52,0.00,,,0.00,weatherlink.com 1.10,2013-03-21 20:47:00,
2013-03-21 17:02:00,27.7,12.0,30.00,West,269,4.0,16.0,51,0.00,,,0.00,weatherlink.com 1.10,2013-03-21 21:02:00,
2013-03-21 17:17:00,28.2,12.0,30.00,SSW,209,3.0,19.0,50,0.00,,,0.00,weatherlink.com 1.10,2013-03-21 21:17:00,
2013-03-21 17:32:00,28.8,13.0,30.01,NE,38,4.0,10.0,51,0.00,,,0.00,weatherlink.com 1.10,2013-03-21 21:32:00,
2013-03-21 17:47:00,28.5,11.0,30.01,WNW,284,2.0,15.0,48,0.00,,,0.00,weatherlink.com 1.10,2013-03-21 21:47:00,
2013-03-21 18:02:00,27.8,11.0,30.02,North,360,3.0,17.0,49,0.00,,,0.00,weatherlink.com 1.10,2013-03-21 22:02:00,
2013-03-21 18:17:00,27.3,10.0,30.01,ENE,63,7.0,15.0,49,0.01,,,0.01,weatherlink.com 1.10,2013-03-21 22:17:00,
2013-03-21 18:32:00,26.8,10.0,30.02,North,349,5.0,11.0,50,0.01,,,0.01,weatherlink.com 1.10,2013-03-21 22:32:00,
2013-03-21 18:47:00,26.3,10.0,30.01,NW,316,11.0,16.0,51,0.01,,,0.01,weatherlink.com 1.10,2013-03-21 22:47:00,
2013-03-21 19:02:00,26.0,11.0,30.02,WSW,243,3.0,14.0,53,0.01,,,0.01,weatherlink.com 1.10,2013-03-21 23:02:00,
2013-03-21 19:17:00,24.9,10.0,30.03,WNW,283,13.0,13.0,54,0.00,,,0.01,weatherlink.com 1.10,2013-03-21 23:17:00,
2013-03-21 19:32:00,24.1,10.0,30.03,NW,316,7.0,12.0,56,0.00,,,0.01,weatherlink.com 1.10,2013-03-21 23:32:00,
2013-03-21 19:47:00,23.6,10.0,30.04,North,360,4.0,12.0,56,0.00,,,0.01,weatherlink.com 1.10,2013-03-21 23:47:00,
2013-03-21 20:02:00,23.5,10.0,30.04,NNW,345,9.0,19.0,56,0.00,,,0.01,weatherlink.com 1.10,2013-03-22 00:02:00,
2013-03-21 20:17:00,23.2,10.0,30.05,West,271,4.0,10.0,58,0.00,,,0.01,weatherlink.com 1.10,2013-03-22 00:17:00,
2013-03-21 20:32:00,23.0,10.0,30.06,WNW,300,9.0,14.0,58,0.00,,,0.01,weatherlink.com 1.10,2013-03-22 00:32:00,
2013-03-21 20:47:00,22.8,10.0,30.07,NW,316,0.0,11.0,58,0.00,,,0.01,weatherlink.com 1.10,2013-03-22 00:47:00,
2013-03-21 21:02:00,22.6,10.0,30.08,North,349,4.0,17.0,58,0.00,,,0.01,weatherlink.com 1.10,2013-03-22 01:02:00,
2013-03-21 21:17:00,22.4,10.0,30.09,North,349,4.0,13.0,59,0.00,,,0.01,weatherlink.com 1.10,2013-03-22 01:17:00,
2013-03-21 21:32:00,22.1,10.0,30.10,WNW,300,3.0,12.0,60,0.00,,,0.01,weatherlink.com 1.10,2013-03-22 01:32:00,
2013-03-21 21:47:00,21.9,10.0,30.09,WNW,296,5.0,12.0,60,0.00,,,0.01,weatherlink.com 1.10,2013-03-22 01:47:00,
2013-03-21 22:02:00,21.8,10.0,30.09,North,5,10.0,16.0,60,0.00,,,0.01,weatherlink.com 1.10,2013-03-22 02:02:00,
2013-03-21 22:17:00,21.6,10.0,30.10,NW,323,2.0,10.0,60,0.00,,,0.01,weatherlink.com 1.10,2013-03-22 02:17:00,
2013-03-21 22:32:00,21.4,10.0,30.11,NNW,333,3.0,11.0,61,0.00,,,0.01,weatherlink.com 1.10,2013-03-22 02:32:00,
2013-03-21 22:47:00,21.1,10.0,30.11,North,360,8.0,9.0,63,0.00,,,0.01,weatherlink.com 1.10,2013-03-22 02:47:00,
2013-03-21 23:02:00,20.6,10.0,30.12,North,355,1.0,7.0,64,0.00,,,0.01,weatherlink.com 1.10,2013-03-22 03:02:00,
2013-03-21 23:18:00,20.2,10.0,30.13,North,10,4.0,14.0,66,0.00,,,0.01,weatherlink.com 1.10,2013-03-22 03:18:00,
2013-03-21 23:33:00,19.7,10.0,30.14,NNW,346,3.0,7.0,67,0.00,,,0.01,weatherlink.com 1.10,2013-03-22 03:33:00,
2013-03-21 23:48:00,19.4,10.0,30.14,North,5,3.0,7.0,68,0.00,,,0.01,weatherlink.com 1.10,2013-03-22 03:48:00,